Banff, Alberta

3:38 PM MDT on July 24, 2017 (GMT -0600)
Banff

Weather History for CWZG - October, 2012

Change the Weather History Date:

Monday, October 8, 2012

  Actual Average Record
Temperature  
Mean Temperature 38 °F -  
Max Temperature 45 °F - - ()
Min Temperature 30 °F - - ()
Degree Days  
Heating Degree Days 26    
Moisture  
Dew Point 35 °F    
Average Humidity 89    
Maximum Humidity 96    
Minimum Humidity 76    
Precipitation  
Precipitation 0.06 in - - ()
Sea Level Pressure  
Sea Level Pressure 30.06 in    
Wind  
Wind Speed 3 mph ()    
Max Wind Speed 8 mph    
Max Gust Speed -    
T = Trace of Precipitation, MM = Missing Value Source: Averaged Metar Reports

Daily Weather History Graph

Daily Weather History Graph

Search for Another Location

Airport or City:

Trip Planner

Search our weather history database for the weather conditions in past years. The results will help you decide how hot, cold, wet, or windy it might be!

Date:

Astronomy

Oct. 08, 2012 Rise Set
Actual Time 7:55 AM MDT 7:03 PM MDT
Civil Twilight 7:21 AM MDT 7:36 PM MDT
Nautical Twilight 6:43 AM MDT 8:14 PM MDT
Astronomical Twilight 6:04 AM MDT 8:53 PM MDT
Moon No Moon Rise 3:36 PM MDT (10/8)
Length of Visible Light 12h 14m
Length of Day
11h 07m
Last Quarter, 46% of the Moon is Illuminated
Oct 8
Last Quarter
Oct 15
New
Oct 21
First Quarter
Oct 29
Full
Nov 6
Last Quarter

Hourly Weather History & Observations

Time (MDT) Temp. Windchill Dew Point Humidity Pressure Visibility Wind Dir Wind Speed Gust Speed Precip Events Conditions
12:00 AM 45.3 °F 42.3 °F 38.1 °F 76% 29.99 in - ENE 5.8 mph - N/A   Unknown
1:00 AM 44.6 °F 40.7 °F 37.8 °F 77% 29.99 in - NE 6.9 mph - N/A   Unknown
3:00 AM 41.0 °F - 38.8 °F 92% 30.03 in - Calm Calm - 0.03 in   Unknown
4:00 AM 40.3 °F - 37.9 °F 91% 30.01 in - NNE 1.2 mph - N/A   Unknown
5:00 AM 39.6 °F - 37.2 °F 91% 30.01 in - NE 2.3 mph - N/A   Unknown
6:00 AM 38.8 °F - 36.9 °F 93% 30.02 in - NE 2.3 mph - N/A   Unknown
7:00 AM 38.5 °F - 36.7 °F 93% 30.01 in - NE 1.2 mph - N/A   Unknown
8:00 AM 38.3 °F - 36.7 °F 94% 30.02 in - North 1.2 mph - N/A   Unknown
9:00 AM 39.2 °F - 37.8 °F 95% 30.04 in - NE 1.2 mph - 0.01 in   Unknown
10:00 AM 39.9 °F 36.7 °F 36.9 °F 89% 30.04 in - NE 4.6 mph - N/A   Unknown
11:00 AM 40.5 °F 35.8 °F 36.7 °F 86% 30.04 in - NNE 6.9 mph - N/A   Unknown
12:00 PM 40.8 °F 35.6 °F 36.0 °F 83% 30.03 in - NE 8.1 mph - N/A   Unknown
1:00 PM 38.7 °F 32.9 °F 34.5 °F 85% 30.06 in - NE 8.1 mph - N/A   Unknown
2:00 PM 36.9 °F 30.7 °F 34.0 °F 89% 30.07 in - NNE 8.1 mph - 0.02 in   Unknown
3:00 PM 36.5 °F 31.0 °F 33.6 °F 89% 30.08 in - NNE 6.9 mph - N/A   Unknown
4:00 PM 36.7 °F 32.0 °F 33.1 °F 87% 30.09 in - NE 5.8 mph - N/A   Unknown
5:00 PM 37.0 °F 33.3 °F 33.1 °F 86% 30.10 in - ENE 4.6 mph - N/A   Unknown
6:00 PM 36.7 °F 34.1 °F 33.6 °F 89% 30.12 in - East 3.5 mph - N/A   Unknown
7:00 PM 36.1 °F - 31.3 °F 83% 30.14 in - East 2.3 mph - N/A   Unknown
8:00 PM 34.9 °F - 32.9 °F 92% 30.14 in - NE 2.3 mph - N/A   Unknown
9:00 PM 32.9 °F - 31.1 °F 93% 30.15 in - Calm Calm - N/A   Unknown
11:00 PM 30.9 °F - 29.8 °F 96% 30.15 in - East 1.2 mph - N/A   Unknown